This is the latest recevied weather packets stored in our database for station/object CALDNA-WX. If no packets are shown the sender has not sent any weather packets the latest 10 day(s).
| Time | Temp. | Humidity | Pressure | Rain* | Wind** | Luminosity | Snow |
|---|---|---|---|---|---|---|---|
| 1777686321 | 2.78° C | 62% | 989.6 hPa | 0 mm | - | - | - |
| 1777685437 | 2.78° C | 62% | 989.6 hPa | 0 mm | - | - | - |
| 1777684521 | 2.78° C | 62% | 989.5 hPa | 0 mm | - | - | - |
| 1777683640 | 2.78° C | 62% | 989.5 hPa | 0 mm | - | - | - |
| 1777682720 | 3.33° C | 54% | 989.9 hPa | 0 mm | - | - | - |
| 1777681838 | 3.89° C | 58% | 990.4 hPa | 0 mm | - | - | - |
| 1777680921 | 4.44° C | 58% | 990.4 hPa | 0 mm | - | - | - |
| 1777680050 | 5° C | 58% | 990.4 hPa | 0 mm | - | - | - |
| 1777679121 | 5° C | 53% | 988.8 hPa | 0 mm | - | - | - |
| 1777678235 | 5° C | 53% | 989.8 hPa | 0 mm | - | - | - |
| 1777677321 | 5° C | 53% | 989.8 hPa | 0 mm | - | - | - |
| 1777676443 | 5.56° C | 53% | 989.8 hPa | 0 mm | - | - | - |
| 1777675521 | 6.67° C | 56% | 988.6 hPa | 0 mm | - | - | - |
| 1777674640 | 6.67° C | 55% | 989.6 hPa | 0 mm | - | - | - |
| 1777673721 | 6.67° C | 55% | 989.6 hPa | 0 mm | - | - | - |
| 1777672847 | 6.67° C | 55% | 989.6 hPa | 0 mm | - | - | - |
| 1777671921 | 7.22° C | 59% | 988.9 hPa | 0 mm | - | - | - |
| 1777671035 | 6.67° C | 60% | 989.3 hPa | 0 mm | - | - | - |
| 1777670121 | 6.11° C | 60% | 989.3 hPa | 0 mm | - | - | - |
| 1777669246 | 6.67° C | 60% | 989.3 hPa | 0 mm | - | - | - |
| 1777668321 | 6.67° C | 54% | 988.6 hPa | 0 mm | - | - | - |
| 1777667438 | 6.67° C | 55% | 988.7 hPa | 0 mm | - | - | - |
| 1777666521 | 7.22° C | 55% | 988.7 hPa | 0 mm | - | - | - |
| 1777665647 | 7.22° C | 55% | 988.7 hPa | 0 mm | - | - | - |
| 1777664720 | 7.22° C | 55% | 988.5 hPa | 0 mm | - | - | - |
* Rain latest hour (hover to see other rain measurements)
** Current wind speed in m/s (hover to see current wind gust speed)